Location: Unspecified
(0.0000°N, 0.0000°E)
Time: 00:22:33
(UTC+01:00)

Cosmos 1536 - Visible Passes

Search period start: 21 February 2018 00:00
Search period end: 03 March 2018 00:00
Orbit: 543 x 558 km, 82.5° (Epoch: 19 February)

Date Brightness Start Highest point End Pass type
(mag) Time Alt. Az. Time Alt. Az. Time Alt. Az.
21 Feb 2.7 20:40:56 10° S 20:44:56 89° W 20:45:30 65° N visible
22 Feb 2.8 20:36:51 10° S 20:40:51 77° W 20:43:11 24° N visible
23 Feb 3.1 20:32:46 10° S 20:36:46 67° W 20:40:44 10° N visible
24 Feb 3.4 20:28:44 10° SSW 20:32:40 58° W 20:36:37 10° N visible
25 Feb 3.7 20:24:41 10° SSW 20:28:34 50° W 20:32:28 10° N visible
26 Feb 4.1 20:20:40 10° SSW 20:24:29 43° W 20:28:19 10° NNW visible
27 Feb 4.4 20:16:40 10° SSW 20:20:24 38° W 20:24:08 10° NNW visible
28 Feb 4.7 20:12:41 10° SSW 20:16:19 33° W 20:19:57 10° NNW visible
01 Mar 5.0 20:08:43 10° SSW 20:12:13 29° W 20:15:44 10° NNW visible
02 Mar 5.3 20:04:46 10° SW 20:08:08 25° W 20:11:30 10° NNW visible
